"Date","subscriberCount","subscriberChange","viewCount","viewChange","videoCount","videoChange","commentCount","commentChange"
"2021-05-30 00:02:02","439000","1000","261115574","0","1586","6","","0"
"2021-05-31 00:02:01","441000","2000","263748255","2632681","1592","6","","0"
"2021-06-01 00:02:01","442000","1000","266012070","2263815","1592","0","","0"
"2021-06-02 00:02:01","443000","1000","267795353","1783283","1593","1","","0"
"2021-06-03 00:02:01","444000","1000","269219011","1423658","1593","0","","0"
"2021-06-04 00:02:02","445000","1000","270453335","1234324","1602","9","","0"
"2021-06-05 00:02:01","446000","1000","271841109","1387774","1604","2","","0"
"2021-06-06 00:02:01","447000","1000","273506048","1664939","1603","-1","","0"
"2021-06-07 00:02:01","448000","1000","274879572","1373524","1603","0","","0"
"2021-06-08 00:02:01","449000","1000","276201969","1322397","1624","21","","0"
"2021-06-09 00:02:00","450000","1000","278578037","2376068","1624","0","","0"
"2021-06-10 00:02:01","451000","1000","280053011","1474974","1625","1","","0"
"2021-06-11 00:02:02","451000","0","281279794","1226783","1646","21","","0"
"2021-06-12 00:02:02","452000","1000","283024891","1745097","1648","2","","0"
"2021-06-13 00:02:02","454000","2000","284810499","1785608","1651","3","","0"
"2021-06-14 00:02:01","457000","3000","286503031","1692532","1658","7","","0"
"2021-06-15 00:02:01","460000","3000","289265838","2762807","1659","1","","0"
"2021-06-16 00:02:01","462000","2000","292205723","2939885","1659","0","","0"
"2021-06-17 00:02:01","464000","2000","294539257","2333534","1659","0","","0"
"2021-06-18 00:02:01","465000","1000","296518061","1978804","1659","0","","0"
"2021-06-19 00:02:01","466000","1000","298183046","1664985","1659","0","","0"
"2021-06-20 00:02:01","468000","2000","299621781","1438735","1660","1","","0"
"2021-06-21 00:02:01","470000","2000","301333120","1711339","1660","0","","0"
"2021-06-22 00:02:01","471000","1000","302807173","1474053","1660","0","","0"
"2021-06-23 00:02:02","472000","1000","303913771","1106598","1660","0","","0"
"2021-06-24 00:02:01","472000","0","304970618","1056847","1660","0","","0"
"2021-06-25 00:02:01","473000","1000","306052081","1081463","1660","0","","0"
"2021-06-26 00:02:02","473000","0","307026412","974331","1660","0","","0"
"2021-06-27 00:02:02","474000","1000","307948033","921621","1660","0","","0"
"2021-06-28 00:02:02","475000","1000","309013868","1065835","1660","0","","0"
"2021-06-29 00:02:02","475000","0","310055274","1041406","1660","0","","0"
"2021-06-30 00:02:01","475000","0","310802637","747363","1660","0","","0"
"2021-07-01 00:02:02","476000","1000","311737657","935020","1660","0","","0"
"2021-07-02 00:02:01","476000","0","312509387","771730","1660","0","","0"
"2021-07-03 00:02:02","476000","0","313316352","806965","1660","0","","0"
"2021-07-04 00:02:01","477000","1000","314110994","794642","1660","0","","0"
"2021-07-05 00:02:02","477000","0","314923118","812124","1660","0","","0"
"2021-07-06 00:02:02","477000","0","315426018","502900","1660","0","","0"
"2021-07-07 00:02:01","477000","0","316437738","1011720","1660","0","","0"
"2021-07-08 00:02:02","478000","1000","317076323","638585","1660","0","","0"
"2021-07-09 00:02:02","478000","0","317680509","604186","1660","0","","0"
"2021-07-10 00:02:01","478000","0","318314152","633643","1660","0","","0"
"2021-07-11 00:02:01","478000","0","318915693","601541","1660","0","","0"
"2021-07-12 00:02:01","478000","0","319538204","622511","1660","0","","0"
"2021-07-13 00:02:00","478000","0","320014645","476441","1660","0","","0"
"2021-07-14 00:02:02","479000","1000","320726384","711739","1660","0","","0"
"2021-07-15 00:02:02","479000","0","321242777","516393","1660","0","","0"
"2021-07-16 00:02:02","479000","0","321758584","515807","1660","0","","0"
"2021-07-17 00:02:01","479000","0","322269662","511078","1660","0","","0"
"2021-07-18 00:02:01","479000","0","322766212","496550","1660","0","","0"
"2021-07-19 00:02:02","479000","0","323274969","508757","1660","0","","0"
"2021-07-20 00:02:02","479000","0","323822613","547644","1660","0","","0"
"2021-07-21 00:02:01","479000","0","324310454","487841","1660","0","","0"
"2021-07-22 00:02:01","479000","0","324760892","450438","1660","0","","0"
"2021-07-23 00:02:01","479000","0","325222066","461174","1660","0","","0"
"2021-07-24 00:02:01","479000","0","325714192","492126","1660","0","","0"
"2021-07-25 00:02:01","479000","0","326216574","502382","1660","0","","0"
"2021-07-26 00:02:01","479000","0","326695411","478837","1660","0","","0"
"2021-07-27 00:02:01","479000","0","327149962","454551","1660","0","","0"
"2021-07-28 00:02:02","479000","0","327556025","406063","1660","0","","0"
"2021-07-29 00:02:01","479000","0","327981708","425683","1660","0","","0"
"2021-07-30 00:02:01","479000","0","328399586","417878","1660","0","","0"
"2021-07-31 00:02:02","479000","0","328804754","405168","1660","0","","0"
"2021-08-01 00:02:01","479000","0","329180778","376024","1660","0","","0"
"2021-08-02 00:02:01","479000","0","329589508","408730","1660","0","","0"
"2021-08-03 00:02:01","479000","0","330004063","414555","1660","0","","0"
"2021-08-04 00:02:01","479000","0","330424508","420445","1660","0","","0"
"2021-08-05 00:02:01","479000","0","330759424","334916","1660","0","","0"
"2021-08-06 00:02:01","479000","0","331116505","357081","1660","0","","0"
"2021-08-07 00:02:01","479000","0","331367316","250811","1660","0","","0"
"2021-08-08 00:02:01","479000","0","331858620","491304","1660","0","","0"
"2021-08-09 00:02:01","479000","0","332197744","339124","1660","0","","0"
"2021-08-10 00:02:02","479000","0","332561159","363415","1660","0","","0"
"2021-08-11 00:02:01","479000","0","332561159","0","1660","0","","0"
"2021-08-12 00:02:01","479000","0","333264525","703366","1660","0","","0"
"2021-08-13 00:02:01","479000","0","333603385","338860","1660","0","","0"
"2021-08-14 00:02:02","479000","0","333959860","356475","1660","0","","0"
"2021-08-15 00:02:02","479000","0","334277306","317446","1660","0","","0"
"2021-08-16 00:02:02","479000","0","334611529","334223","1660","0","","0"
"2021-08-17 00:02:02","478000","-1000","334771246","159717","1660","0","","0"
"2021-08-18 00:02:01","478000","0","335304390","533144","1660","0","","0"
"2021-08-19 00:02:01","478000","0","335622900","318510","1660","0","","0"
"2021-08-20 00:02:01","478000","0","335924675","301775","1660","0","","0"
"2021-08-21 00:02:01","478000","0","336205380","280705","1660","0","","0"
"2021-08-22 00:02:01","478000","0","336480350","274970","1660","0","","0"
"2021-08-23 00:02:01","478000","0","336753710","273360","1660","0","","0"
"2021-08-24 00:02:02","478000","0","337028448","274738","1660","0","","0"
"2021-08-25 00:02:01","478000","0","337294346","265898","1660","0","","0"
"2021-08-26 00:02:02","478000","0","337483321","188975","1660","0","","0"
"2021-08-27 00:02:01","478000","0","337832433","349112","1660","0","","0"
"2021-08-28 00:02:01","477000","-1000","338090282","257849","1660","0","","0"
"2021-08-29 00:02:01","477000","0","338343378","253096","1660","0","","0"
"2021-08-30 00:02:01","477000","0","338612792","269414","1660","0","","0"
"2021-08-31 00:02:01","477000","0","338730192","117400","1660","0","","0"
"2021-09-01 00:02:02","477000","0","339148919","418727","1660","0","","0"
"2021-09-02 00:02:01","477000","0","339392157","243238","1660","0","","0"
"2021-09-03 00:02:02","477000","0","339631561","239404","1660","0","","0"
"2021-09-04 00:02:01","477000","0","339865084","233523","1660","0","","0"
"2021-09-05 00:02:01","477000","0","340103531","238447","1660","0","","0"
"2021-09-06 00:02:01","477000","0","340364076","260545","1660","0","","0"
"2021-09-07 00:02:01","477000","0","340579817","215741","1660","0","","0"
"2021-09-08 00:02:01","476000","-1000","340840866","261049","1660","0","","0"
"2021-09-09 00:02:02","476000","0","341075377","234511","1660","0","","0"
"2021-09-10 00:02:01","476000","0","341303155","227778","1660","0","","0"
"2021-09-11 00:02:01","476000","0","341541321","238166","1660","0","","0"
"2021-09-12 00:02:01","476000","0","341779659","238338","1660","0","","0"
"2021-09-13 00:02:01","476000","0","342032281","252622","1660","0","","0"
"2021-09-14 00:02:02","476000","0","342274012","241731","1660","0","","0"
"2021-09-15 00:02:01","476000","0","342451853","177841","1660","0","","0"
"2021-09-16 00:02:02","476000","0","342700319","248466","1660","0","","0"
"2021-09-17 00:02:01","476000","0","342896345","196026","1660","0","","0"
"2021-09-18 00:02:01","476000","0","343108443","212098","1660","0","","0"
"2021-09-19 00:02:01","475000","-1000","343325335","216892","1660","0","","0"
"2021-09-20 00:02:01","475000","0","343608991","283656","1660","0","","0"
"2021-09-21 00:02:01","475000","0","343902141","293150","1660","0","","0"
"2021-09-22 00:02:01","475000","0","344184579","282438","1660","0","","0"
"2021-09-23 00:02:02","475000","0","344432523","247944","1660","0","","0"
"2021-09-24 00:02:01","475000","0","344695006","262483","1660","0","","0"
"2021-09-25 00:02:02","475000","0","344986867","291861","1660","0","","0"
"2021-09-26 00:02:01","475000","0","345219792","232925","1660","0","","0"
"2021-09-27 00:02:01","475000","0","345219792","0","1660","0","","0"
"2021-09-28 00:02:01","475000","0","345769459","549667","1660","0","","0"
"2021-09-29 00:02:01","475000","0","345903961","134502","1660","0","","0"
"2021-09-30 00:02:01","475000","0","346275865","371904","1660","0","","0"
"2021-10-01 00:02:02","475000","0","346536064","260199","1660","0","","0"
"2021-10-02 00:02:02","475000","0","346792889","256825","1660","0","","0"
"2021-10-03 00:02:01","475000","0","346792889","0","1660","0","","0"
"2021-10-04 00:02:01","475000","0","347331489","538600","1660","0","","0"
"2021-10-05 00:02:02","475000","0","347625794","294305","1660","0","","0"
"2021-10-06 00:02:02","475000","0","347855883","230089","1660","0","","0"
"2021-10-07 00:02:00","475000","0","348099074","243191","1660","0","","0"
"2021-10-08 00:02:02","475000","0","348337202","238128","1660","0","","0"
"2021-10-09 00:02:01","475000","0","348576394","239192","1660","0","","0"
"2021-10-10 00:02:01","475000","0","348795679","219285","1660","0","","0"
"2021-10-11 00:02:01","475000","0","349069875","274196","1660","0","","0"
"2021-10-12 00:02:01","475000","0","349204995","135120","1660","0","","0"
"2021-10-13 00:02:01","475000","0","349499233","294238","1660","0","","0"
"2021-10-14 00:02:01","475000","0","349707082","207849","1660","0","","0"
"2021-10-15 00:02:01","475000","0","349910443","203361","1660","0","","0"
"2021-10-16 00:02:01","475000","0","350117130","206687","1660","0","","0"
"2021-10-17 00:02:02","475000","0","350298358","181228","1660","0","","0"
"2021-10-18 00:02:01","475000","0","350516479","218121","1660","0","","0"
"2021-10-19 00:02:01","475000","0","350648542","132063","1660","0","","0"
"2021-10-20 00:02:00","475000","0","350942460","293918","1660","0","","0"
"2021-10-21 00:02:01","475000","0","351083571","141111","1660","0","","0"
"2021-10-22 00:02:01","474000","-1000","351283899","200328","1660","0","","0"
"2021-10-23 00:02:01","474000","0","351283899","0","1660","0","","0"
"2021-10-24 00:02:01","474000","0","351701598","417699","1660","0","","0"
"2021-10-25 00:02:01","474000","0","351904674","203076","1660","0","","0"
"2021-10-26 00:02:02","474000","0","352109392","204718","1660","0","","0"
"2021-10-27 00:02:01","474000","0","352280855","171463","1660","0","","0"
"2021-10-28 00:02:01","474000","0","352446011","165156","1660","0","","0"
"2021-10-29 00:02:02","474000","0","352628441","182430","1660","0","","0"
"2021-10-30 00:02:01","474000","0","352815144","186703","1660","0","","0"
"2021-10-31 00:02:01","474000","0","352988694","173550","1660","0","","0"
"2021-11-01 00:02:02","474000","0","353174501","185807","1660","0","","0"
"2021-11-02 00:02:02","474000","0","353368007","193506","1660","0","","0"
"2021-11-03 00:02:02","474000","0","353560004","191997","1660","0","","0"
"2021-11-04 00:02:02","474000","0","353765598","205594","1660","0","","0"
"2021-11-05 00:02:01","474000","0","353979096","213498","1660","0","","0"
"2021-11-06 00:02:01","474000","0","354184538","205442","1660","0","","0"
"2021-11-07 00:02:01","474000","0","354431402","246864","1660","0","","0"
"2021-11-08 00:02:01","474000","0","354614707","183305","1660","0","","0"
"2021-11-09 00:02:02","474000","0","354877398","262691","1660","0","","0"
"2021-11-10 00:02:01","474000","0","355092854","215456","1660","0","","0"
"2021-11-11 00:02:01","474000","0","355302746","209892","1660","0","","0"
"2021-11-12 00:02:02","474000","0","355488630","185884","1660","0","","0"
"2021-11-13 00:02:02","474000","0","355671847","183217","1660","0","","0"
"2021-11-14 00:02:01","474000","0","355843602","171755","1660","0","","0"
"2021-11-15 00:02:01","474000","0","356037190","193588","1660","0","","0"
"2021-11-16 00:02:02","474000","0","356241471","204281","1660","0","","0"
"2021-11-17 00:02:01","474000","0","356435815","194344","1660","0","","0"
"2021-11-18 00:02:01","474000","0","356664789","228974","1660","0","","0"
"2021-11-19 00:02:01","474000","0","356894779","229990","1660","0","","0"
"2021-11-20 00:02:02","474000","0","357163933","269154","1660","0","","0"
"2021-11-21 00:02:02","474000","0","357398776","234843","1660","0","","0"
"2021-11-22 00:02:01","474000","0","357658382","259606","1660","0","","0"
"2021-11-23 00:02:01","474000","0","357900560","242178","1660","0","","0"
"2021-11-24 00:02:02","474000","0","358118558","217998","1660","0","","0"
"2021-11-25 00:02:01","474000","0","358363807","245249","1660","0","","0"
"2021-11-26 00:02:01","474000","0","358571738","207931","1660","0","","0"
"2021-11-27 00:02:02","474000","0","358769577","197839","1660","0","","0"
"2021-11-28 00:02:02","474000","0","358961848","192271","1660","0","","0"
"2021-11-29 00:02:01","474000","0","359172437","210589","1660","0","","0"
"2021-11-30 00:02:02","474000","0","359380823","208386","1660","0","","0"
"2021-12-01 00:02:02","474000","0","359559935","179112","1660","0","","0"
"2021-12-02 00:02:01","474000","0","359757910","197975","1660","0","","0"
"2021-12-03 00:02:02","474000","0","359929025","171115","1660","0","","0"
"2021-12-04 00:02:01","474000","0","360094703","165678","1660","0","","0"
"2021-12-05 00:02:01","474000","0","360248781","154078","1660","0","","0"
"2021-12-06 00:02:02","474000","0","360411583","162802","1660","0","","0"
"2021-12-07 00:02:01","474000","0","360588476","176893","1660","0","","0"
"2021-12-08 00:02:01","474000","0","360730193","141717","1660","0","","0"
"2021-12-09 00:02:01","474000","0","360862991","132798","1660","0","","0"
"2021-12-10 00:02:01","474000","0","361001248","138257","1660","0","","0"
"2021-12-11 00:02:02","474000","0","361153120","151872","1660","0","","0"
"2021-12-12 00:02:01","473000","-1000","361293216","140096","1660","0","","0"
"2021-12-13 00:02:00","473000","0","361443477","150261","1660","0","","0"
"2021-12-14 00:02:02","473000","0","361597000","153523","1660","0","","0"
"2021-12-15 00:02:01","473000","0","361723504","126504","1660","0","","0"
"2021-12-16 00:02:01","473000","0","361850310","126806","1660","0","","0"
"2021-12-17 00:02:01","473000","0","361970096","119786","1660","0","","0"
"2021-12-18 00:02:01","473000","0","362095082","124986","1660","0","","0"
"2021-12-19 00:02:01","473000","0","362221797","126715","1660","0","","0"
"2021-12-20 00:02:01","473000","0","362360685","138888","1660","0","","0"
"2021-12-21 00:02:01","473000","0","362498206","137521","1660","0","","0"
"2021-12-22 00:02:01","473000","0","362617268","119062","1660","0","","0"
"2021-12-23 00:02:02","473000","0","362749545","132277","1660","0","","0"
"2021-12-24 00:02:02","473000","0","362884019","134474","1660","0","","0"
"2021-12-25 00:02:01","473000","0","363016281","132262","1660","0","","0"
"2021-12-26 00:02:01","473000","0","363140651","124370","1660","0","","0"
"2021-12-27 00:02:02","473000","0","363264422","123771","1660","0","","0"
"2021-12-28 00:02:01","473000","0","363395860","131438","1660","0","","0"
"2021-12-29 00:02:02","473000","0","363515492","119632","1660","0","","0"
"2021-12-30 00:02:01","473000","0","363642477","126985","1660","0","","0"
"2021-12-31 00:02:01","473000","0","363772229","129752","1660","0","","0"
"2022-01-01 00:02:02","473000","0","363894261","122032","1660","0","","0"
"2022-01-02 00:02:01","473000","0","364016896","122635","1660","0","","0"
"2022-01-03 00:02:01","472000","-1000","364117228","100332","1660","0","","0"
"2022-01-04 00:02:02","472000","0","364221490","104262","1660","0","","0"
"2022-01-05 00:02:01","472000","0","364333682","112192","1660","0","","0"
"2022-01-06 00:02:02","472000","0","364442665","108983","1660","0","","0"
"2022-01-07 00:02:02","472000","0","364557747","115082","1660","0","","0"
"2022-01-08 00:02:02","472000","0","364669478","111731","1660","0","","0"
"2022-01-09 00:02:01","472000","0","364784742","115264","1660","0","","0"
"2022-01-10 00:02:02","472000","0","364903505","118763","1660","0","","0"
"2022-01-11 00:02:01","472000","0","365033666","130161","1660","0","","0"
"2022-01-12 00:02:02","472000","0","365162961","129295","1660","0","","0"
"2022-01-13 00:02:01","472000","0","365279066","116105","1660","0","","0"
"2022-01-14 00:02:02","472000","0","365393376","114310","1660","0","","0"
"2022-01-15 00:02:01","472000","0","365512928","119552","1660","0","","0"
"2022-01-16 00:02:01","472000","0","365641051","128123","1660","0","","0"
"2022-01-17 00:02:01","472000","0","365774830","133779","1660","0","","0"
"2022-01-18 00:02:02","471000","-1000","365920433","145603","1660","0","","0"
"2022-01-19 00:02:01","471000","0","366043491","123058","1660","0","","0"
"2022-01-20 00:02:01","471000","0","366174413","130922","1660","0","","0"
"2022-01-21 00:02:00","471000","0","366302383","127970","1660","0","","0"
"2022-01-22 00:02:01","471000","0","366434610","132227","1660","0","","0"
"2022-01-23 00:02:01","471000","0","366582088","147478","1660","0","","0"
"2022-01-24 00:02:01","471000","0","366749704","167616","1660","0","","0"
"2022-01-25 00:02:01","471000","0","366915324","165620","1660","0","","0"
"2022-01-26 00:02:01","471000","0","367052049","136725","1660","0","","0"
"2022-01-27 00:02:01","471000","0","367182708","130659","1660","0","","0"
"2022-01-28 00:02:01","471000","0","367322074","139366","1660","0","","0"
"2022-01-29 00:02:01","471000","0","367462188","140114","1660","0","","0"
"2022-01-30 00:02:01","471000","0","367595600","133412","1660","0","","0"
"2022-01-31 00:02:01","471000","0","367737991","142391","1660","0","","0"
"2022-02-01 00:02:02","471000","0","367890445","152454","1660","0","","0"
"2022-02-02 00:02:02","471000","0","368022432","131987","1660","0","","0"
"2022-02-03 00:02:01","471000","0","368157626","135194","1660","0","","0"
"2022-02-04 00:02:01","470000","-1000","368296050","138424","1660","0","","0"
"2022-02-05 00:02:01","470000","0","368428243","132193","1660","0","","0"
"2022-02-06 00:02:01","470000","0","368560522","132279","1660","0","","0"
"2022-02-07 00:02:01","470000","0","368699657","139135","1660","0","","0"
"2022-02-08 00:02:01","470000","0","368845254","145597","1660","0","","0"
"2022-02-09 00:02:02","470000","0","368982707","137453","1660","0","","0"
"2022-02-10 00:02:01","470000","0","369131782","149075","1660","0","","0"
"2022-02-11 00:02:01","470000","0","369275902","144120","1660","0","","0"
"2022-02-12 00:02:01","470000","0","369422474","146572","1660","0","","0"
"2022-02-13 00:02:01","470000","0","369574423","151949","1660","0","","0"
"2022-02-14 00:02:01","470000","0","369712939","138516","1660","0","","0"
"2022-02-15 00:02:01","470000","0","369860105","147166","1660","0","","0"
"2022-02-16 00:02:01","470000","0","369977932","117827","1660","0","","0"
"2022-02-17 00:02:02","470000","0","370107426","129494","1660","0","","0"
"2022-02-18 00:02:01","470000","0","370237842","130416","1660","0","","0"
"2022-02-19 00:02:02","470000","0","370365527","127685","1660","0","","0"
"2022-02-20 00:02:01","470000","0","370486530","121003","1660","0","","0"
"2022-02-21 00:02:02","470000","0","370623295","136765","1660","0","","0"
"2022-02-22 00:02:02","469000","-1000","370759886","136591","1660","0","","0"
"2022-02-23 00:02:01","469000","0","370878462","118576","1660","0","","0"
"2022-02-24 00:02:01","469000","0","371006700","128238","1660","0","","0"
"2022-02-25 00:02:02","469000","0","371150001","143301","1660","0","","0"
"2022-02-26 00:02:02","469000","0","371274306","124305","1660","0","","0"
"2022-02-27 00:02:02","469000","0","371393233","118927","1660","0","","0"
"2022-02-28 00:02:01","469000","0","371521374","128141","1660","0","","0"
"2022-03-01 00:02:02","469000","0","371654742","133368","1660","0","","0"
"2022-03-02 00:02:02","469000","0","371759845","105103","1660","0","","0"
"2022-03-03 00:02:00","469000","0","371873839","113994","1660","0","","0"
"2022-03-04 00:02:02","469000","0","371986909","113070","1660","0","","0"
"2022-03-05 00:02:01","469000","0","372105256","118347","1660","0","","0"
"2022-03-06 00:02:02","469000","0","372216032","110776","1660","0","","0"
"2022-03-07 00:02:01","469000","0","372332061","116029","1660","0","","0"
"2022-03-08 00:02:02","469000","0","372446176","114115","1660","0","","0"
"2022-03-09 00:02:02","469000","0","372557269","111093","1660","0","","0"
"2022-03-10 00:02:01","469000","0","372664256","106987","1660","0","","0"
"2022-03-11 00:02:02","468000","-1000","372767478","103222","1660","0","","0"
"2022-03-12 00:02:01","468000","0","372870106","102628","1660","0","","0"
"2022-03-13 00:02:01","468000","0","372971560","101454","1660","0","","0"
"2022-03-14 00:02:01","468000","0","373078215","106655","1660","0","","0"
"2022-03-15 00:02:02","468000","0","373194502","116287","1660","0","","0"
"2022-03-16 00:02:01","468000","0","373296869","102367","1660","0","","0"
"2022-03-17 00:02:02","468000","0","373403746","106877","1660","0","","0"
"2022-03-18 00:02:02","468000","0","373504283","100537","1660","0","","0"
"2022-03-19 00:02:01","468000","0","373610558","106275","1660","0","","0"
"2022-03-20 00:02:01","468000","0","373725566","115008","1660","0","","0"
"2022-03-21 00:02:01","468000","0","373839354","113788","1660","0","","0"
"2022-03-22 00:02:01","468000","0","373962261","122907","1660","0","","0"
"2022-03-23 00:02:01","468000","0","374113459","151198","1660","0","","0"
"2022-03-24 00:02:02","468000","0","374240011","126552","1660","0","","0"
"2022-03-25 00:02:02","468000","0","374365748","125737","1660","0","","0"
"2022-03-26 00:02:02","468000","0","374489060","123312","1660","0","","0"
"2022-03-27 00:02:01","468000","0","374598301","109241","1660","0","","0"
"2022-03-28 00:02:02","468000","0","374704065","105764","1660","0","","0"
"2022-03-29 00:02:01","468000","0","374823855","119790","1660","0","","0"
"2022-03-30 00:02:02","467000","-1000","374964755","140900","1660","0","","0"
"2022-03-31 00:02:01","467000","0","375048182","83427","1660","0","","0"
"2022-04-01 00:02:01","467000","0","375164702","116520","1660","0","","0"
"2022-04-02 00:02:01","467000","0","375278247","113545","1660","0","","0"
"2022-04-03 00:02:01","467000","0","375381598","103351","1660","0","","0"
"2022-04-04 00:02:02","467000","0","375481209","99611","1660","0","","0"
"2022-04-05 00:02:01","467000","0","375593016","111807","1660","0","","0"
"2022-04-06 00:02:01","467000","0","375695520","102504","1660","0","","0"
"2022-04-07 00:02:02","467000","0","375806526","111006","1660","0","","0"
"2022-04-08 00:02:02","467000","0","375986289","179763","1660","0","","0"
"2022-04-09 00:02:01","467000","0","376323435","337146","1660","0","","0"
"2022-04-10 00:02:01","467000","0","376463078","139643","1660","0","","0"
"2022-04-11 00:02:02","467000","0","376585708","122630","1660","0","","0"
"2022-04-12 00:02:02","467000","0","376705602","119894","1660","0","","0"
"2022-04-13 00:02:01","467000","0","376806296","100694","1660","0","","0"
"2022-04-14 00:02:02","467000","0","376907110","100814","1660","0","","0"